Showing default

DUMMY SAT 3/ORION, 59479

Orbit data source: Space-Track

DUMMY SAT 3/ORION, 59479 is a payload satellite owned by Khrunichev (CIS) in GEO that was launched on Thu, 11 Apr 2024 UTC via an ANGARA A5/ORION launch vehicle from the Vostochny Cosmodrome (VOSTO). Payload-class satellites include a variety of spacecraft equipped with specific instruments for various scientific and technological missions. These include communications satellites like Starlink; space stations such as the ISS; scientific satellites like the Hubble; Earth observation satellites from companies like Planet Labs, Umbra, and HawkEye 360; GPS; miniature CubeSats for education and research; and military/defense satellites.

Loading next visibility...
Identifier
59479, 2024-069A
Orbit
GEO
Country
Flag of CISCIS
Related business
Manufacturer
Khrunichev
Mission
Operational spacecraft
Bus & Motor
GVM, Unknown motor
Mass
~20,000 kg wet, 2,400 kg dry
Launch date (UTC)
2024-04-11 (1 year ago)
Launch vehicle
ANGARA A5/ORION
Launch site
Vostochny Cosmodrome (VOSTO)
Object type
Payload
Rocket body
Debris
Shape & HBR
Unknown
Radar Cross Section
RCS unknown

Expand to show TLE details & history
Last TLE update: 19 hours ago

TLE from 19 hours ago
0 DUMMY SAT 3/ORION
1 59479U 24069A   25242.38704570 -.00000199  00000-0  00000-0 0  9994
2 59479   1.3584  84.7639 0051339 125.1669 235.9547  0.98608666  4946
Epoch: 2025-08-30T09:17Z
TLE epoch observation values (Epoch: 2025-08-30T09:17:20.748Z)
Latitude
-0°
Longitude
-32.76529°
Altitude
36,381.361 km
Speed
3.049 km/s
True Right ascension
05h 41m 34s
True Declination
0° 00' 00"
Sunlit
Object was in daylight at epoch
Visualization orbit readout
Latitude
Unknown
Longitude
Unknown
Altitude
Unknown
Speed
Unknown
Apparent Right ascension
Unknown
Apparent Declination
Unknown
Sunlit
N/A
Visualization observer readout
Local Sidereal Time
19:54:14
Azimuth
Unknown
Elevation
Unknown
Doppler factor
Unknown
Orbital elements
Apogee altitude
36,479.329 km
Perigee altitude
36,041.524 km
Semi-major axis
42,638.563 km
Eccentricity
0.00513
Inclination
1.3584°
RAAN
84.7639°
Arg. of periapsis
125.1669°
True anomaly
235.46899°
Mean anomaly
235.9547°
Eccentric anomaly
235.71167°
Mean motion
0.24651 °/min
Orbital period
1,460.37 mins
BSTAR
0
Loading maneuver chart data...
Computing Atmospheric mass density...
Loading historical data...
Loading historical data...
Loading historical data...
Loading historical data...
Loading historical data...
Loading historical data...
Loading historical data...
Other satellites on launch #69 in the year 2024 (2024-04-11 UTC)

Documentation

Showing up to 5 results
|